Weather in Pudem

Russia / Udmurt Republic     58°18′15″N   52°09′46″E
temp.,
°C
wind,
m/s
gust,
m/s
humid.,
%
clouds,
%
prec.,
mm/h
press.,
hPa
HPBL,
m
10 may, mon
mon1001:00+12se3116783 0.0 1016209
04:00+13se3116480 0.0 1018299
07:00+14se31064100 0.0 1019314
10:00+15ssw3968100 0.0 1020411
13:00+20ssw2453100 0.0 1021717
16:00+22sw3546100 0.1 10211711
19:00+15wnw4983100 1.3 1024390
22:00+14n1186100 1.4 102417
11 may, tue
tue1101:00+12nw1296100 0.0 102642
04:00+10n379727 0.0 1027220
07:00+11nne238836 0.0 1028277
10:00+15n33718 0.0 1029614
13:00+19nw225448 0.0 10281094
16:00+20nw3350100 0.0 10281293
19:00+18n24605 0.0 1029120
22:00+12nne236978 0.0 103040
12 may, wed
wed1201:00+11ne227065 0.0 103123
04:00+9nne22692 0.0 103117
07:00+13ne24574 0.0 1032181
10:00+19ene23371 0.0 1031733
13:00+22ese11334 0.0 10301199
16:00+23sw01342 0.0 10301461
19:00+21wsw11485 0.0 102915
22:00+15n116010 0.0 102911
13 may, thu
thu1301:00+14ene11685 0.0 103011
04:00+13ese117273 0.0 103010
07:00+16se126011 0.0 1030115
10:00+22sse22450 0.0 1029648
13:00+25ssw22354 0.0 10281633
16:00+25sw23350 0.0 10271980
19:00+23nw11485 0.0 102613
22:00+18e225649 0.0 102612
14 may, fri
fri1401:00+18sse2262100 0.0 102627
04:00+16sw117310 0.0 102711
07:00+19sw12625 0.0 1027155
10:00+23sw35435 0.0 1026927
13:00+25sw563682 0.0 10251953
16:00+25wsw4637100 0.0 10241851
19:00+22wsw37535 0.0 1023306
22:00+17ssw23675 0.0 102348